Location: Newport
(44.6370°N, 124.0520°W)
Time: 13:39:40
(UTC-08:00)

Envisat - Pass Details

Date: 15 October 2017
Orbit: 764 x 766 km, 98.2° (Epoch: 17 December)

Event Time Altitude Azimuth Distance (km) Brightness Sun altitude
Exits shadow 21:43:43 36° 285° (WNW) 1,208 4.4 -34.4°
Drops below altitude 10° 21:47:38 10° 331° (NNW) 2,314 6.0 -35.1°
Sets 21:50:07 0° 340° (NNW) 3,246 6.8 -35.5°
